Regional Weather Roundup
Issued by NWS

Home | Current Version | Previous Version | Text Only | Print | Product List | Glossary Off
Versions: 1 2 3 4 5 6 7 8 9 10 11 12 13 14 15 16 17 18 19 20 21 22 23 24 25 26 27 28 29 30 31 32 33 34 35 36 37 38 39 40 41 42 43 44 45 46 47 48 49 50

000
ASUS43 KOAX 012102
RWRNE

WEATHER ROUNDUP FOR NEBRASKA
NATIONAL WEATHER SERVICE OMAHA NE
300 PM CST SUN FEB 01 2015

NOTES: SATELLITE DATA IS BEING USED TO AUGMENT CLOUD COVER ABOVE
       12000 FEET.
       "FAIR" INDICATES FEW OR NO CLOUDS BELOW 12,000 FEET WITH NO
       SIGNIFICANT WEATHER AND/OR OBSTRUCTIONS TO VISIBILITY.

  * THESE STATIONS DO NOT REPORT WEATHER SUCH AS RAIN...SNOW OR FOG.

NEZ001>004-019>022-054>056-012200-
NEBRASKA PANHANDLE

CITY           SKY/WX    TMP DP  RH WIND       PRES   REMARKS
SCOTTSBLUFF    SUNNY     21  10  62 N10       30.24F WCI  10
ALLIANCE       SUNNY     12   3  67 N12       30.23F WCI  -2
CHADRON        SUNNY     13   6  74 E6        30.30F WCI   4
SIDNEY         CLOUDY    14   7  73 N22       30.21F WCI  -4
$$

NEZ057>060-069>072-079>082-012200-
SOUTHWEST NEBRASKA

CITY           SKY/WX    TMP DP  RH WIND       PRES   REMARKS
NORTH PLATTE   SUNNY     10   0  63 N24G33    30.27S WCI -10
IMPERIAL       MOSUNNY   14   3  61 N28G37    30.25F WCI  -6
MCCOOK         MOSUNNY   15   5  64 NW28      30.26R WCI  -5
$$

NEZ005>010-023>029-035>040-094-012200-
NORTH CENTRAL NEBRASKA

CITY           SKY/WX    TMP DP  RH WIND       PRES   REMARKS
VALENTINE      MIX PCPN   5  -3  69 NW18G26   30.31F WCI -15
BROKEN BOW     LGT SNOW   7  -1  70 N29G36    30.24S WCI -16
ORD            LGT SNOW   5  -2  72 N23G37    30.26R VSB 1   WCI -17
$$

NEZ041-046>049-061>064-073>077-083>087-012200-
SOUTH CENTRAL NEBRASKA

CITY           SKY/WX    TMP DP  RH WIND       PRES   REMARKS
GRAND ISLAND   SNOW       7   1  76 N35       30.22R VSB 1/2 WCI -18
HASTINGS       SNOW       9   4  80 N35       30.20R VSB 1/2 WCI -15
KEARNEY *      CLOUDY    10   3  72 N29G36    30.23R WCI -11
$$

NEZ011>018-030>034-042>045-012200-
NORTHEAST NEBRASKA

CITY           SKY/WX    TMP DP  RH WIND       PRES   REMARKS
NORFOLK        LGT SNOW   5   0  79 N30G39    30.22R VSB 1   WCI -19
TEKAMAH        LGT SNOW  14   8  77 N32       30.17R VSB 1   WCI  -7
$$

NEZ050>053-065>068-078-088>093-012200-
SOUTHEAST NEBRASKA

CITY           SKY/WX    TMP DP  RH WIND       PRES   REMARKS
LINCOLN        LGT SNOW  10   5  80 N25G38    30.17R VSB 3/4 WCI -11
OMAHA EPPLEY   SNOW      15  10  80 N24G38    30.11R VSB 1/2 WCI  -4
FALLS CITY     LGT SNOW  18  13  80 NW18G33   30.03R VSB 1   WCI   2
$$

NEZ044-045-051>053-067-012200-
OMAHA AREA

CITY           SKY/WX    TMP DP  RH WIND       PRES   REMARKS
OMAHA EPPLEY   SNOW      15  10  80 N24G38    30.11R VSB 1/2 WCI  -4
$$


USA.gov is the U.S. government's official web portal to all federal, state and local government web resources and services.